Flag for United Kingdom Weather past 2 weeks in Sheffield, England, United Kingdom

Now
46 °F

Passing clouds.


Feels Like: 43 °F
Forecast: 30 / 55 °F
Wind: 7 mph from Northeast

Location: Manchester Airport


UV Index: 3 (Moderate)

Visibility: N/A


Pressure: 30.21 "Hg

Humidity: 57%

Dew point: 32 °F

Location of SheffieldLocation

Historic Weather in Sheffield

°F

Sheffield temperature yesterday

Maximum temperature yesterday: 54 °F (at 10:20 AM)
Minimum temperature yesterday: 41 °F (at 11:50 PM)
Average temperature yesterday: 49 °F

Past Weeks' High & Low Weather Summary

 TemperatureHumidityPressure
High61 °F (Apr 6, 1:50 PM)100% (Apr 4, 2:20 AM)30.45 "Hg (Apr 4, 2:20 AM)
Low34 °F (Apr 18, 4:20 AM)43% (Apr 15, 9:50 AM)29.53 "Hg (Apr 7, 1:50 PM)
Average49 °F77%30.03 "Hg
* Reported Apr 3 9:20 AM — Apr 18 9:20 AM, Sheffield, Weather by CustomWeather, © 2014

Note: Actual official high and low records may vary slightly from our data, if they occured in-between our weather recording intervals... More about our weather records

Advertising

Historic Weather Conditions — Data for Previous 24 hours

 ConditionsComfort  
Time TempWeatherWind HumidityBarometerVisibility
9:20 AM
Apr 18
46 °FSunny.7 mph62%30.21 "Hg10 mi
8:50 AM45 °FSunny.8 mph66%30.18 "Hg10 mi
8:20 AM43 °FSunny.7 mph76%30.18 "Hg10 mi
7:50 AM43 °FFog.2 mph81%30.18 "Hg6 mi
7:20 AM37 °FFog.2 mph93%30.18 "Hg6 mi
6:50 AM36 °FFog.3 mph93%30.18 "Hg5 mi
6:20 AM34 °FFog.2 mph93%30.15 "Hg5 mi
5:50 AM34 °FFog.No wind93%30.15 "Hg4 mi
5:20 AM34 °FClear.2 mph93%30.15 "Hg10 mi
4:50 AM34 °FClear.3 mph93%30.15 "Hg10 mi
4:20 AM34 °FClear.No wind100%30.15 "Hg10 mi
3:50 AM36 °FClear.2 mph93%30.15 "Hg10 mi
3:20 AM36 °FChilly.No wind100%30.15 "Hg5 mi
2:50 AM36 °FChilly.2 mph93%30.12 "Hg5 mi
2:20 AM37 °FChilly.2 mph93%30.12 "Hg6 mi
1:50 AM37 °FChilly.2 mph93%30.12 "Hg5 mi
1:20 AM37 °FChilly.3 mph93%30.12 "Hg5 mi
12:20 AM41 °FQuite cool.5 mph87%30.12 "Hg6 mi
11:50 PM
Apr 17
41 °FClear.3 mph87%30.12 "Hg10 mi
11:20 PM43 °FClear.8 mph81%30.12 "Hg10 mi
10:50 PM43 °FQuite cool.6 mph81%30.12 "HgN/A
10:20 PM45 °FClear.7 mph76%30.12 "Hg10 mi
9:50 PM45 °FClear.8 mph76%30.12 "Hg10 mi
9:20 PM45 °FClear.8 mph76%30.09 "Hg10 mi
8:50 PM46 °FPassing clouds.7 mph76%30.09 "HgN/A
8:20 PM46 °FSunny.8 mph82%30.09 "Hg10 mi
7:50 PM48 °FPassing clouds.10 mph82%30.09 "HgN/A
7:20 PM48 °FScattered clouds.13 mph82%30.07 "HgN/A
6:50 PM48 °FScattered clouds.14 mph82%30.07 "HgN/A
5:50 PM50 °FSprinkles. Broken clouds.16 mph76%30.07 "Hg5 mi
5:20 PM52 °FBroken clouds.20 mph72%30.07 "HgN/A
4:50 PM52 °FPartly sunny.15 mph72%30.07 "HgN/A
4:20 PM52 °FPartly sunny.20 mph72%30.07 "HgN/A
3:50 PM52 °FPartly sunny.17 mph72%30.07 "HgN/A
3:20 PM52 °FScattered clouds.17 mph67%30.07 "HgN/A
2:50 PM52 °FScattered clouds.18 mph72%30.07 "HgN/A
2:20 PM52 °FScattered clouds.18 mph67%30.07 "HgN/A
1:50 PM50 °FScattered clouds.21 mph76%30.09 "HgN/A
1:20 PM50 °FDrizzle. Partly sunny.20 mph76%30.09 "HgN/A
12:50 PM54 °FScattered clouds.17 mph72%30.07 "HgN/A
12:20 PM52 °FScattered clouds.15 mph77%30.07 "HgN/A
11:50 AM52 °FPartly sunny.17 mph77%30.07 "HgN/A
11:20 AM52 °FBroken clouds.16 mph77%30.07 "HgN/A
10:50 AM54 °FPartly sunny.17 mph72%30.07 "HgN/A
10:20 AM54 °FBroken clouds.16 mph77%30.07 "HgN/A
Weather by CustomWeather, © 2014

See weather overview